Location: Unspecified
(42.3650°N, 71.1030°W)
Time: 17:07:18
(UTC+00:00)

Tiros 1 - Pass Details

Date: 30 June 2024
Orbit: 624 x 656 km, 48.4° (Epoch: 13 July)

Event Time Altitude Azimuth Distance (km) Brightness Sun altitude
Rises 01:37:02 0° 229° (SW) 2,895 10.5 -11.0°
Reaches altitude 10° 01:39:21 10° 226° (SW) 1,989 9.7 -11.3°
Maximum altitude 01:43:51 60° 147° (SSE) 713 7.1 -11.9°
Drops below altitude 10° 01:48:22 10° 68° (ENE) 1,996 9.5 -12.5°
Sets 01:50:43 0° 64° (ENE) 2,907 10.3 -12.8°
